Zurück zum Katalog

BEIDOU 3M17

AktivNavigationMEO
NORAD 43706·PAYLOAD·🇨🇳 China

Gestartet Nov 18, 2018 von Xichang Satellite Launch Center

Loading…

Nächste Überflüge (nächste 24 Stunden)

TLE

AktuellSource: CelesTrak SupGP

Epoche: Sep 12, 2026, 00:00 UTC

1 43706C 18093A   26255.00000000  .00000000  00000+0  00000+0 0  2554
2 43706  54.1661 179.3534 0008423 303.7037 216.8212  1.86228480    19

Verfolge BEIDOU 3M17 in Echtzeit mit AllMySat

Download on the App Store